TimeEDT,TemperatureF,Dew PointF,Humidity,Sea Level PressureIn,VisibilityMPH,Wind Direction,Wind SpeedMPH,Gust SpeedMPH,PrecipitationIn,Events,Conditions,WindDirDegrees,DateUTC
12:15 AM,30.2,28.4,93,29.98,4.0,NNE,4.6,-,N/A,,Overcast,30,2013-04-05 04:15:00
12:35 AM,30.2,28.4,93,29.98,4.0,NNE,3.5,-,0.01,,Overcast,30,2013-04-05 04:35:00
12:55 AM,30.2,28.4,93,29.97,3.0,Calm,Calm,-,0.03,,Overcast,0,2013-04-05 04:55:00
1:15 AM,30.2,30.2,100,29.96,3.0,Calm,Calm,-,0.01,,Overcast,0,2013-04-05 05:15:00
1:35 AM,30.2,30.2,100,29.96,3.0,Calm,Calm,-,0.01,,Overcast,0,2013-04-05 05:35:00
1:55 AM,30.2,28.4,93,29.95,4.0,Calm,Calm,-,0.02,,Overcast,0,2013-04-05 05:55:00
2:15 AM,30.2,30.2,100,29.95,4.0,Calm,Calm,-,N/A,,Overcast,0,2013-04-05 06:15:00
2:35 AM,30.2,30.2,100,29.95,3.0,Calm,Calm,-,N/A,,Overcast,0,2013-04-05 06:35:00
2:55 AM,30.2,30.2,100,29.94,2.5,Calm,Calm,-,N/A,,Overcast,0,2013-04-05 06:55:00
3:15 AM,30.2,28.4,93,29.94,2.0,Calm,Calm,-,N/A,,Overcast,0,2013-04-05 07:15:00
3:35 AM,30.2,30.2,100,29.93,1.8,Calm,Calm,-,0.02,,Overcast,0,2013-04-05 07:35:00
3:55 AM,30.2,30.2,100,29.93,1.5,Calm,Calm,-,0.02,,Overcast,0,2013-04-05 07:55:00
4:15 AM,30.2,30.2,100,29.94,1.2,Calm,Calm,-,N/A,,Overcast,0,2013-04-05 08:15:00
4:35 AM,30.2,30.2,100,29.94,1.5,Calm,Calm,-,N/A,,Overcast,0,2013-04-05 08:35:00
4:55 AM,30.2,30.2,100,29.95,1.2,Calm,Calm,-,N/A,,Overcast,0,2013-04-05 08:55:00
5:15 AM,30.2,30.2,100,29.95,1.5,Calm,Calm,-,N/A,,Overcast,0,2013-04-05 09:15:00
5:35 AM,30.2,30.2,100,29.96,1.2,Calm,Calm,-,N/A,,Overcast,0,2013-04-05 09:35:00
5:55 AM,30.2,30.2,100,29.96,1.0,Calm,Calm,-,N/A,,Overcast,0,2013-04-05 09:55:00
6:15 AM,30.2,30.2,100,29.96,1.8,South,3.5,-,N/A,,Overcast,190,2013-04-05 10:15:00
6:35 AM,30.2,30.2,100,29.96,2.0,SSW,3.5,-,N/A,,Overcast,200,2013-04-05 10:35:00
6:55 AM,30.2,30.2,100,29.96,2.0,Calm,Calm,-,N/A,,Overcast,0,2013-04-05 10:55:00
7:15 AM,30.2,30.2,100,29.97,2.5,Calm,Calm,-,N/A,,Overcast,0,2013-04-05 11:15:00
7:35 AM,30.2,30.2,100,29.97,1.5,Calm,Calm,-,N/A,,Overcast,0,2013-04-05 11:35:00
8:15 AM,30.2,30.2,100,29.97,1.0,Calm,Calm,-,N/A,,Overcast,0,2013-04-05 12:15:00
8:35 AM,30.2,30.2,100,29.96,0.2,Calm,Calm,-,N/A,Fog,Light Freezing Fog,0,2013-04-05 12:35:00
8:55 AM,30.2,30.2,100,29.97,0.2,SSW,3.5,-,N/A,Fog,Light Freezing Fog,210,2013-04-05 12:55:00
9:15 AM,32.0,30.2,93,29.97,0.2,Calm,Calm,-,N/A,Fog,Light Freezing Fog,0,2013-04-05 13:15:00
9:35 AM,32.0,32.0,100,29.97,0.2,Calm,Calm,-,N/A,Fog,Fog,0,2013-04-05 13:35:00
9:55 AM,32.0,32.0,100,29.98,0.2,Calm,Calm,-,N/A,Fog,Fog,0,2013-04-05 13:55:00
10:15 AM,32.0,32.0,100,29.98,0.2,Calm,Calm,-,N/A,Fog,Fog,0,2013-04-05 14:15:00
10:35 AM,33.8,33.8,100,29.98,5.0,Calm,Calm,-,N/A,,Clear,0,2013-04-05 14:35:00
10:55 AM,35.6,33.8,93,29.99,10.0,Calm,Calm,-,N/A,,Clear,0,2013-04-05 14:55:00
11:15 AM,37.4,32.0,81,29.99,10.0,Calm,Calm,-,N/A,,Clear,0,2013-04-05 15:15:00
11:35 AM,39.2,30.2,70,29.99,10.0,SW,3.5,-,N/A,,Clear,230,2013-04-05 15:35:00
11:55 AM,41.0,28.4,61,29.98,10.0,WNW,3.5,-,N/A,,Clear,290,2013-04-05 15:55:00
12:15 PM,42.8,28.4,57,29.98,10.0,WSW,5.8,-,N/A,,Clear,250,2013-04-05 16:15:00
12:35 PM,44.6,23.0,43,29.97,10.0,West,4.6,-,N/A,,Clear,280,2013-04-05 16:35:00
12:55 PM,46.4,23.0,40,29.97,10.0,NW,8.1,17.3,N/A,,Clear,320,2013-04-05 16:55:00
1:15 PM,46.4,24.8,43,29.97,10.0,West,9.2,-,N/A,,Clear,280,2013-04-05 17:15:00
1:35 PM,46.4,21.2,37,29.96,10.0,NNW,5.8,-,N/A,,Clear,330,2013-04-05 17:35:00
1:55 PM,48.2,21.2,34,29.96,10.0,NNW,8.1,-,N/A,,Clear,340,2013-04-05 17:55:00
2:15 PM,50.0,19.4,30,29.95,10.0,NW,6.9,-,N/A,,Clear,310,2013-04-05 18:15:00
2:35 PM,50.0,19.4,30,29.95,10.0,NNW,9.2,16.1,N/A,,Clear,330,2013-04-05 18:35:00
2:55 PM,51.8,19.4,28,29.94,10.0,NW,9.2,-,N/A,,Clear,320,2013-04-05 18:55:00
3:15 PM,51.8,19.4,28,29.94,10.0,NW,5.8,17.3,N/A,,Clear,310,2013-04-05 19:15:00
3:35 PM,51.8,19.4,28,29.94,10.0,NNW,12.7,18.4,N/A,,Clear,340,2013-04-05 19:35:00
3:55 PM,51.8,21.2,30,29.94,10.0,WNW,10.4,18.4,N/A,,Clear,290,2013-04-05 19:55:00
4:15 PM,51.8,21.2,30,29.94,10.0,NW,9.2,18.4,N/A,,Clear,320,2013-04-05 20:15:00
4:35 PM,51.8,21.2,30,29.94,10.0,NW,8.1,-,N/A,,Clear,320,2013-04-05 20:35:00
4:55 PM,51.8,23.0,33,29.94,10.0,NNW,9.2,19.6,N/A,,Clear,330,2013-04-05 20:55:00
5:15 PM,51.8,21.2,30,29.95,10.0,North,10.4,17.3,N/A,,Clear,350,2013-04-05 21:15:00
5:35 PM,51.8,21.2,30,29.96,10.0,NW,10.4,17.3,N/A,,Clear,310,2013-04-05 21:35:00
5:55 PM,51.8,19.4,28,29.96,10.0,NW,10.4,18.4,N/A,,Clear,320,2013-04-05 21:55:00
6:15 PM,51.8,19.4,28,29.97,10.0,NNW,10.4,19.6,N/A,,Clear,340,2013-04-05 22:15:00
6:35 PM,51.8,19.4,28,29.98,10.0,NW,8.1,-,N/A,,Clear,320,2013-04-05 22:35:00
6:55 PM,50.0,19.4,30,29.98,10.0,WNW,5.8,-,N/A,,Clear,300,2013-04-05 22:55:00
7:15 PM,50.0,19.4,30,29.98,10.0,WNW,4.6,-,N/A,,Clear,300,2013-04-05 23:15:00
7:35 PM,48.2,21.2,34,29.99,10.0,NW,5.8,-,N/A,,Clear,310,2013-04-05 23:35:00
7:55 PM,48.2,19.4,32,30.00,10.0,NW,3.5,-,N/A,,Clear,320,2013-04-05 23:55:00
8:15 PM,46.4,19.4,34,30.01,10.0,NW,4.6,-,N/A,,Clear,320,2013-04-06 00:15:00
8:35 PM,46.4,19.4,34,30.01,10.0,NW,3.5,-,N/A,,Clear,310,2013-04-06 00:35:00
8:55 PM,44.6,19.4,37,30.03,10.0,NW,3.5,-,N/A,,Clear,320,2013-04-06 00:55:00
9:15 PM,44.6,21.2,39,30.03,10.0,Calm,Calm,-,N/A,,Clear,0,2013-04-06 01:15:00
9:35 PM,46.4,19.4,34,30.04,10.0,Calm,Calm,-,N/A,,Clear,0,2013-04-06 01:35:00
9:55 PM,42.8,21.2,42,30.04,10.0,Calm,Calm,-,N/A,,Clear,0,2013-04-06 01:55:00
10:15 PM,41.0,21.2,45,30.05,10.0,Calm,Calm,-,N/A,,Clear,0,2013-04-06 02:15:00
10:35 PM,37.4,21.2,52,30.05,10.0,Calm,Calm,-,N/A,,Clear,0,2013-04-06 02:35:00
10:55 PM,39.2,23.0,52,30.05,10.0,NNE,4.6,-,N/A,,Clear,20,2013-04-06 02:55:00
11:15 PM,41.0,21.2,45,30.06,10.0,North,4.6,-,N/A,,Clear,0,2013-04-06 03:15:00
11:35 PM,41.0,21.2,45,30.06,10.0,North,4.6,-,N/A,,Clear,10,2013-04-06 03:35:00
11:55 PM,33.8,23.0,65,30.07,10.0,Calm,Calm,-,N/A,,Clear,0,2013-04-06 03:55:00